Mount Ida, AR

10:35 PM CDT on March 24, 2017 (GMT -0500)
Mount Ida

Weather History for KMWT - March, 2013

Change the Weather History Date:

Wednesday, March 6, 2013

  Actual Average (KHOT) Record (KHOT)
Temperature  
Mean Temperature 44 °F -  
Max Temperature 57 °F 61 °F 83 °F (1956)
Min Temperature 30 °F 36 °F 18 °F (2015)
Degree Days  
Heating Degree Days 22    
Moisture  
Dew Point 21 °F    
Average Humidity 47    
Maximum Humidity 76    
Minimum Humidity 21    
Precipitation  
Precipitation 0.00 in - - ()
Sea Level Pressure  
Sea Level Pressure 30.32 in    
Wind  
Wind Speed 4 mph (NW)    
Max Wind Speed 7 mph    
Max Gust Speed -    
Visibility 10 miles    
Events      
Averages and records for this station are not official NWS values.
T = Trace of Precipitation, MM = Missing Value Source: NWS Daily Summary

Daily Weather History Graph

Daily Weather History Graph

Search for Another Location

Airport or City:

Trip Planner

Search our weather history database for the weather conditions in past years. The results will help you decide how hot, cold, wet, or windy it might be!

Date:

Astronomy

Mar. 06, 2013 Rise Set
Actual Time 6:36 AM CST 6:14 PM CST
Civil Twilight 6:11 AM CST 6:40 PM CST
Nautical Twilight 5:42 AM CST 7:09 PM CST
Astronomical Twilight 5:13 AM CST 7:38 PM CST
Moon 2:35 AM CST (3/6) 1:07 PM CST (3/6)
Length of Visible Light 12h 28m
Length of Day
11h 38m
Waning Crescent, 29% of the Moon is Illuminated
Mar 6
Waning Crescent
Mar 11
New
Mar 19
First Quarter
Mar 27
Full
Apr 2
Last Quarter

Hourly Weather History & Observations

Time (CST) Temp. Windchill Dew Point Humidity Pressure Visibility Wind Dir Wind Speed Gust Speed Precip Events Conditions
12:53 AM 39.0 °F 35.7 °F 21.0 °F 49% 30.28 in 10.0 mi Variable 4.6 mph - N/A   Clear
1:53 AM 37.0 °F 31.6 °F 21.9 °F 54% 30.31 in 10.0 mi NW 6.9 mph - N/A   Clear
2:53 AM 36.0 °F 32.1 °F 21.9 °F 57% 30.30 in 10.0 mi NW 4.6 mph - N/A   Clear
3:53 AM 34.0 °F 28.8 °F 21.0 °F 59% 30.32 in 10.0 mi Variable 5.8 mph - N/A   Clear
4:53 AM 33.1 °F 27.7 °F 19.0 °F 56% 30.34 in 10.0 mi NNW 5.8 mph - N/A   Clear
5:53 AM 32.0 °F 28.7 °F 19.0 °F 59% 30.37 in 10.0 mi NW 3.5 mph - N/A   Clear
6:53 AM 30.9 °F 26.2 °F 19.0 °F 61% 30.38 in 10.0 mi WNW 4.6 mph - N/A   Clear
7:53 AM 33.1 °F 27.7 °F 19.0 °F 56% 30.39 in 10.0 mi WNW 5.8 mph - N/A   Clear
8:53 AM 37.0 °F 31.6 °F 19.0 °F 48% 30.40 in 10.0 mi NW 6.9 mph - N/A   Clear
9:53 AM 41.0 °F 37.1 °F 17.1 °F 38% 30.39 in 10.0 mi Variable 5.8 mph - N/A   Clear
10:53 AM 44.1 °F 41.5 °F 18.0 °F 35% 30.38 in 10.0 mi Variable 4.6 mph - N/A   Clear
11:53 AM 48.9 °F - 18.0 °F 29% 30.37 in 10.0 mi Variable 4.6 mph - N/A   Clear
12:53 PM 52.0 °F - 17.1 °F 25% 30.33 in 10.0 mi Calm Calm - N/A   Clear
1:53 PM 54.0 °F - 16.0 °F 22% 30.29 in 10.0 mi Variable 3.5 mph - N/A   Clear
2:53 PM 57.9 °F - 18.0 °F 21% 30.26 in 10.0 mi Variable 3.5 mph - N/A   Clear
3:53 PM 55.9 °F - 18.0 °F 23% 30.27 in 10.0 mi Calm Calm - N/A   Clear
4:53 PM 57.0 °F - 18.0 °F 22% 30.26 in 10.0 mi Variable 4.6 mph - N/A   Clear
5:53 PM 54.0 °F - 21.0 °F 28% 30.27 in 10.0 mi Calm Calm - N/A   Clear
6:53 PM 46.9 °F - 24.1 °F 41% 30.29 in 10.0 mi Calm Calm - N/A   Clear
7:53 PM 41.0 °F - 28.9 °F 62% 30.28 in 10.0 mi Calm Calm - N/A   Clear
8:53 PM 39.9 °F - 27.0 °F 60% 30.27 in 10.0 mi Calm Calm - N/A   Clear
9:53 PM 39.0 °F - 30.0 °F 70% 30.28 in 10.0 mi Calm Calm - N/A   Clear
10:53 PM 37.9 °F - 30.0 °F 73% 30.28 in 10.0 mi Calm Calm - N/A   Clear
11:53 PM 37.0 °F - 30.0 °F 76% 30.26 in 10.0 mi Calm Calm - N/A   Clear